カタログに戻る

COSMOS 981

運用中軍事LEO
NORAD 10588·PAYLOAD·🇷🇺 Russia

打ち上げ Jan 10, 1978 から Plesetsk Cosmodrome

Loading…

次のパス (今後24時間)

TLE

最新Source: Space-Track

元期: Sep 14, 2026, 06:20 UTC

1 10588U 78005F   26257.26421906 -.00000008  00000-0  55011-4 0  9999
2 10588  74.0348   8.2811 0020427   1.9755  21.7416 12.46468123211486

AllMySatでCOSMOS 981をリアルタイム追跡

Download on the App Store